User: anonymous   Login
Location: ????????
(55.0097°N, 38.5678°E)
Time: 02:36:55
(UTC+00:00)
Language:

Cosmos 972 Rocket - Orbit

View from above orbital plane
View from above orbital plane
View from above satellite
View from above satellite

Ground track
Ground track

The orbit data is extracted from the following two-line orbital elements,

1 10541U 77123B   24174.27801473  .00000061  00000-0  43162-4 0  9998
2 10541  75.8359 114.8871 0299468 315.1994  42.5306 13.89118665355810
Epoch (UTC): 22 June 2024 06:40:20
Eccentricity: 0.0299468
inclination: 75.8359°
perigee height: 713 km
apogee height: 1150 km
right ascension of ascending node: 114.8871°
argument of perigee: 315.1994°
revolutions per day: 13.89118665
mean anomaly at epoch: 42.5306°
orbit number at epoch: 35581

The dashed part of the orbit path shows where the satellite is in the earth's shadow,  

DLR